Location: Squamish
(49.7000°N, 123.1500°W)
Time: 23:18:50
(UTC-07:00)

Daily predictions for brighter satellites

Satellite Brightness Start Highest point End
(mag) Time Altitude Azimuth Time Altitude Azimuth Time Altitude Azimuth
Meteor 2-16 Rocket 4.5 19:50:35 10° S 19:56:41 69° E 20:02:47 10° NNE
Cosmos 1900 4.4 19:53:22 10° SSW 19:58:07 55° ESE 20:02:58 10° NE
CZ-2D R/B 3.9 19:56:12 10° SE 19:59:46 36° ENE 20:03:22 10° N
SJ-6B 3.0 20:01:19 10° S 20:05:02 71° WSW 20:08:47 10° NNW
USA 186 2.6 20:03:33 10° ESE 20:05:14 18° ENE 20:06:53 10° NNE
Abrixas 2.4 20:03:31 10° W 20:06:22 68° S 20:09:11 10° E
Cosmos 1937 Rocket 4.1 20:01:41 10° SSE 20:06:24 35° ESE 20:11:11 10° NE
USA 267 3.8 20:00:13 10° E 20:06:32 53° NNE 20:12:50 10° WNW
Cosmos 1437 Rocket 3.2 20:03:26 10° SSE 20:07:12 41° E 20:11:02 10° NNE
CZ-4B DEB 4.3 20:06:18 10° ESE 20:08:33 19° ENE 20:10:49 10° NNE
Cosmos 2298 Rocket 4.3 20:04:24 10° S 20:09:25 45° ESE 20:14:29 10° NE
Okean 3 Rocket 4.4 20:05:30 10° N 20:09:26 31° ENE 20:13:20 10° SE
Cosmos 405 2.9 20:09:52 10° S 20:13:21 66° E 20:16:53 10° NNE
ALOS 2.6 20:14:14 10° S 20:18:54 72° WSW 20:23:36 10° NNW
Cosmos 1934 Rocket 4.1 20:14:13 10° SSE 20:20:09 53° E 20:26:03 10° NNE
SeaSat 1 3.8 20:18:30 10° S 20:23:09 41° WSW 20:27:49 10° NW
CZ-3B DEB 3.3 20:13:30 10° SSW 20:23:37 43° SE 20:28:32 10° ENE
Lacrosse 5 3.2 20:20:19 10° S 20:23:55 20° SE 20:27:17 11° E
Cosmos 1939 Rocket 3.9 20:26:39 12° SE 20:29:54 29° ENE 20:33:32 10° N
Cosmos 2344 3.8 20:26:41 10° SSW 20:34:00 50° ESE 20:42:22 10° NE
Cosmos 482 Debris 3.2 20:32:24 10° WNW 20:34:16 40° N 20:34:59 25° ENE
Cosmos 1953 3.5 20:31:16 10° SE 20:34:30 23° E 20:37:45 10° NE
Resurs 01 Rocket 1.9 20:30:23 10° S 20:34:47 72° WSW 20:39:13 10° NNW
GP-B 3.9 20:31:27 10° SE 20:35:19 30° ENE 20:39:13 10° NNE
In-Cosmos 22 4.1 20:31:09 10° N 20:36:31 67° ENE 20:41:47 10° SSE
Cosmos 1821 Rocket 4.1 20:31:55 10° S 20:38:19 87° E 20:44:43 10° N
Cosmos 1378 3.8 20:35:39 10° NNW 20:39:23 57° W 20:43:03 10° S
Cosmos 1812 Rocket 3.5 20:35:42 10° S 20:40:07 80° E 20:44:32 10° NNE
Cosmos 1844 Rocket 2.6 20:35:49 10° SSW 20:41:28 81° ESE 20:47:08 10° NNE
YAOGAN 6 4.0 20:43:57 20° E 20:45:01 22° ENE 20:47:58 10° NNE
H-2A R/B 3.7 20:42:42 10° S 20:46:30 51° W 20:50:22 10° NNW
Cosmos 1833 Rocket 3.2 20:41:14 10° NNW 20:46:35 42° NE 20:50:12 19° ESE
Spot 1 4.3 20:43:19 10° SSE 20:47:55 85° ENE 20:52:51 10° NNW
Cosmos 2278 Rocket 2.5 20:43:10 10° S 20:48:29 43° ESE 20:53:50 10° NE
SAR-Lupe-4 3.5 20:45:33 10° SSE 20:49:08 86° WSW 20:52:45 10° NNW
Cosmos 1766 Rocket 4.1 20:47:31 10° N 20:51:45 39° ENE 20:54:17 21° SE
Lacrosse 5 rocket 2.1 20:49:18 10° NW 20:53:06 38° NNE 20:55:11 21° ENE
Meteor 1-24 Rocket 4.2 20:48:49 10° NNW 20:54:09 61° W 20:59:39 10° S
RESURS DK-1 2.8 20:50:28 10° NW 20:54:34 60° WSW 20:58:30 11° SSE
Cosmos 1605 Rocket 4.0 20:49:57 10° S 20:56:08 69° E 21:02:29 10° NNE
Cosmos 1076 Rocket 3.5 20:53:38 10° N 20:57:52 59° ENE 21:00:54 18° SSE
Cosmos 2150 Rocket 4.0 20:53:03 10° SSW 20:58:12 86° WNW 21:03:25 10° NNE
Spot 2 Rocket 4.4 20:53:59 10° S 20:58:56 50° W 21:03:56 10° NNW
H-2A R/B 3.8 20:57:46 15° ENE 20:59:14 17° NE 21:02:37 10° NNE
Cosmos 2123 Rocket 4.3 20:57:19 10° NNW 21:03:39 70° W 21:09:53 10° S
Cosmos 1766 3.4 20:59:51 10° SSW 21:03:42 75° W 21:07:38 10° N
Cosmos 2084 Rocket 4.1 21:03:17 10° WSW 21:07:11 50° NW 21:10:57 10° NE
Cosmos 158 Rocket 4.1 21:03:31 10° NNW 21:08:29 54° ENE 21:11:01 28° SE
Terra 3.9 21:08:46 11° ENE 21:09:12 11° NE 21:10:36 10° NE
Cosmos 1898 Rocket 4.3 21:08:41 10° SW 21:13:53 54° WNW 21:19:05 10° NNE
Cosmos 2082 Rocket 2.2 21:08:19 10° NNW 21:14:02 69° ENE 21:17:10 27° SE
USA 215 3.4 21:07:47 10° ENE 21:14:07 49° SE 21:20:24 10° SSW
Cosmos 1271 Rocket 4.2 21:16:41 23° ENE 21:16:41 23° ENE 21:18:48 10° NNE
Timation 2 Rocket 4.0 21:09:51 10° NNW 21:16:17 65° NE 21:19:38 28° SE
Envisat 3.0 21:11:56 12° SSE 21:16:40 86° WSW 21:21:48 10° NNW
Cosmos 2061 Rocket 4.5 21:13:21 21° SE 21:17:08 40° E 21:23:04 10° NNE
Cosmos 1544 2.9 21:13:35 10° S 21:17:13 80° E 21:20:55 10° NNE
Meteor 1-4 Rocket 2.4 21:16:42 46° SE 21:17:21 55° E 21:20:46 10° NNE
Cosmos 990 Rocket 4.1 21:12:21 10° SSW 21:17:36 78° WNW 21:22:53 10° NNE
Helios 1B rocket 2.4 21:16:12 10° NNE 21:20:22 84° WNW 21:24:30 10° SSW
Cosmos 1125 Rocket 3.7 21:17:22 10° S 21:22:17 45° ESE 21:27:15 10° NE
Cosmos 1048 Rocket 3.8 21:17:32 10° NNW 21:22:43 82° ENE 21:25:18 30° SSE
Helios 1A 4.0 21:18:45 10° S 21:22:44 44° W 21:26:46 10° NNW
Cosmos 1743 Rocket 4.0 21:19:45 10° N 21:23:56 40° ENE 21:24:24 39° E
Cosmos-2242 3.3 21:23:52 42° E 21:23:59 42° E 21:28:01 10° NNE
Cosmos 1153 Rocket 4.5 21:17:50 10° S 21:24:13 77° E 21:30:38 10° NNE
SJ-11-01 4.4 21:21:09 16° S 21:24:56 77° WSW 21:29:42 10° NNW
Geosat 4.3 21:22:05 10° NNE 21:27:06 67° NW 21:32:04 10° SW
Cosmos 1500 Rocket 4.4 21:23:11 10° N 21:27:00 32° ENE 21:27:00 32° ENE
COSMOS 2487 2.3 21:25:21 10° NNW 21:28:57 78° ENE 21:29:19 68° SE
Meteor 1-29 3.1 21:25:34 10° N 21:29:02 75° WNW 21:32:30 10° SSW
Tiangong 1 3.7 21:28:08 10° SW 21:28:45 11° SSW 21:28:45 11° SSW
H-2A R/B 3.8 21:30:47 17° NE 21:30:47 17° NE 21:32:53 10° NNE
Meteor 1-21 Rocket 4.4 21:25:15 10° NNW 21:31:02 79° W 21:35:56 15° S
Cosmos 1818 3.8 21:29:18 10° NW 21:34:43 66° SW 21:37:17 31° SSE
USA 186 4.2 21:34:57 10° WSW 21:36:03 12° W 21:37:08 10° WNW
Cosmos 1184 Rocket 4.3 21:33:30 10° N 21:35:33 27° NNE 21:35:33 27° NNE
Lacrosse 4 Rocket 2.6 21:33:13 10° WSW 21:37:04 41° NW 21:40:58 10° NNE
Cosmos 1844 4.5 21:33:35 10° SW 21:39:15 55° NW 21:44:58 10° NNE
Abrixas 4.3 21:38:50 10° W 21:40:27 24° WSW 21:40:27 24° WSW
Cosmos 1805 4.0 21:38:04 10° SSW 21:41:53 53° WNW 21:45:45 10° N
SPOT 1/Viking Rocket 4.1 21:41:35 38° E 21:42:08 40° ENE 21:47:00 10° N
Cosmos 1674 2.9 21:39:34 10° NNW 21:43:18 66° W 21:44:09 48° SSW
Cosmos 1340 Rocket 2.6 21:39:19 10° N 21:43:24 78° ENE 21:43:38 74° ESE
Cosmos 2251 Rocket 3.9 21:39:55 10° NNW 21:45:02 45° ENE 21:45:45 43° E
ERS-1 Rocket 2.9 21:43:34 35° S 21:45:47 83° WSW 21:50:53 10° NNW
Cosmos 1408 Rocket 4.0 21:44:02 10° NNW 21:48:28 61° W 21:50:27 31° SSW
USA 267 3.2 21:46:37 39° SE 21:49:19 87° SSW 21:55:55 10° WNW
ARGOS 3.2 21:48:37 49° ESE 21:49:34 56° ENE 21:54:49 10° N
YAOGAN 11 4.1 21:50:51 64° SE 21:51:32 81° ENE 21:56:08 10° NNW
Cosmos 1269 Rocket 4.4 21:46:55 10° NNW 21:52:07 60° WSW 21:54:28 32° S
Cosmos 1470 3.0 21:54:30 60° NNE 21:54:30 60° NNE 21:57:50 10° NNE
MetOp-A 4.0 21:55:42 50° SSE 21:57:10 85° ENE 22:02:33 10° NNW
Cosmos 1459 Rocket 3.9 21:52:49 21° S 21:57:15 80° E 22:03:28 10° NNE
Cosmos 2173 Rocket 3.8 21:54:17 24° S 21:58:13 80° E 22:04:30 10° NNE
Lacrosse 5 1.7 22:01:12 10° SW 22:06:17 82° SE 22:06:35 77° E
SPOT 5 3.0 22:07:47 64° SSE 22:08:39 87° ENE 22:14:02 10° NNW
Cosmos 1953 3.9 22:07:01 10° SW 22:10:46 35° WNW 22:14:33 10° N
SL-08 RB Rocket 3.9 22:13:46 64° NNE 22:13:46 64° NNE 22:17:57 10° N
Cosmos 1328 4.5 22:11:27 10° NNW 22:14:31 51° NNW 22:14:31 51° NNW
YAOGAN 6 4.1 22:18:24 34° W 22:18:25 34° W 22:21:51 10° NNW
SL-14 R/B 4.4 22:17:30 10° NNW 22:20:03 40° NNW 22:20:03 40° NNW
Cosmos 1733 4.4 22:24:21 41° NW 22:24:21 41° NW 22:27:19 10° N
Cosmos 1356 Rocket 4.2 22:21:17 10° NNW 22:24:26 49° NNW 22:24:26 49° NNW
Cosmos 2016 Rocket 3.9 22:27:27 51° SSW 22:29:11 84° W 22:35:24 10° N
Cosmos 1626 4.5 22:26:49 10° N 22:27:58 18° N 22:27:58 18° N
Cosmos 1833 Rocket 3.7 22:25:20 10° NW 22:30:30 39° WSW 22:31:56 33° SW
Landsat 7 4.5 22:31:53 48° NNE 22:31:53 48° NNE 22:35:29 10° N
Meteor 1-11 4.1 22:25:29 10° NNW 22:31:06 82° W 22:31:19 79° SW
Lacrosse 5 rocket 2.8 22:28:38 10° WNW 22:30:54 31° WNW 22:30:54 31° WNW
Cosmos 2278 Rocket 3.5 22:27:21 10° WSW 22:32:39 39° NW 22:38:00 10° NNE
Cosmos 1725 Rocket 3.8 22:34:23 77° E 22:34:24 77° E 22:40:38 10° NNE
CZ-3B DEB 2.2 22:29:15 10° WSW 22:36:34 63° NW 22:36:34 63° NW
Cosmos 2151 4.0 22:32:59 10° NNW 22:35:59 43° NNW 22:35:59 43° NNW
H-2A R/B 2.2 22:38:24 76° N 22:38:24 76° N 22:43:19 10° NNW
BREEZE-M DEB (TANK) 4.3 22:33:50 10° WSW 22:38:09 81° SSE 22:56:29 10° E
Cosmos 372 Rocket 4.4 22:36:55 46° WSW 22:38:11 61° WNW 22:43:19 10° NNE
Tsikada Rocket 3.9 22:32:38 10° N 22:38:51 83° W 22:39:24 75° SSW
USA 245 4.3 22:41:20 66° WSW 22:41:32 67° W 22:47:26 10° NNW
Cosmos 2297 4.1 22:38:01 10° SW 22:43:41 61° WNW 22:49:24 10° NNE
Terra 2.9 22:47:39 39° N 22:47:39 39° N 22:50:45 10° N
Cosmos 2344 4.5 22:40:50 10° WSW 22:48:32 54° NNW 22:58:00 10° NE
USA 215 3.4 22:52:37 20° NE 22:57:21 72° NNW 23:03:51 10° WSW
Cosmos 2082 Rocket 4.0 22:53:16 10° NW 22:57:35 23° WSW 22:59:03 20° WSW
H-2A R/B 4.0 23:07:54 26° NNW 23:07:54 26° NNW 23:09:49 10° NNW
USA 267 4.4 23:33:57 30° WSW 23:33:57 30° WSW 23:38:38 10° WNW
Cosmos 2297 Rocket 4.4 23:37:34 10° N 23:41:06 16° NNE 23:41:24 16° NE
Lacrosse 5 4.3 23:44:49 10° W 23:45:54 16° W 23:45:54 16° W
